[[{"header":{"parameterUnit":"m.s-1","parameterCategory":2,"la1":30.2991,"la2":30.254,"lo1":-89.0895,"lo2":-89.0444,"dy":0.0017,"dx":0.0017,"nx":28,"ny":28,"refTime":"2024-05-18T21:00:00:Z","depth":"0","parameterNumber":2,"parameterNumberName":"U-component_of_CURRENTS"},"data":[0,0,0,0,0,0,0,0,0,0,0,0,0,0,0,0,0,0,0,0,0,0,0,0,0,0,0,0,0,0,0,0,0,0,0,0,0,0,0,0,0,0,0,0,0,0,0,0,0,0,0,0,0,0,0,0,0,0,0.3304,0.3304,0,0.3288,0.3287,0.3286,0.3158,0.3155,0.3152,0.315,0.3064,0.3064,0.3065,0,0,0,0,0,0,0,0,0,0,0,0,0,0.328,0.3281,0.3304,0.3304,0.3304,0.3288,0.3287,0.3286,0.3158,0.3155,0.3152,0.3149,0.3064,0.3064,0.3065,0,0,0,0,0,0,0,0,0,0,0,0,0,0.3274,0.3281,0.3304,0.3243,0.3238,0.3288,0.3287,0.3286,0.3159,0.3155,0.3151,0.3147,0.3064,0.3064,0.3065,0.3145,0,0,0.3065,0.3065,0,0,0,0,0,0,0,0,0.3275,0.3275,0.3251,0.3247,0.3241,0.3226,0.3247,0.3237,0.316,0.3183,0.315,0.3145,0.3119,0.3114,0.3113,0.3141,0.3138,0.3065,0.3066,0.3066,0.3066,0,0,0,0,0,0,0,0.3275,0.3275,0.3291,0.3252,0.3246,0.3236,0.323,0.3245,0.3167,0.318,0.3172,0.3181,0.3114,0.3113,0.311,0.3136,0.3065,0.3066,0.3066,0.3066,0.3257,0.3262,0,0,0,0,0,0,0.3291,0.3276,0.3292,0.3291,0.3255,0.324,0.3233,0.323,0.3168,0.3157,0.3185,0.3175,0.3114,0.3109,0.3106,0.3195,0.3066,0.3066,0.3066,0.3252,0.3258,0.3264,0,0,0,0,0,0,0.329,0.3292,0.3293,0.3288,0.3288,0.3245,0.3243,0.3232,0.3235,0.3173,0.3159,0.3199,0.3111,0.3106,0.3139,0.319,0.3066,0.3066,0.3247,0.3254,0.3261,0.3375,0,0,0,0,0,0,0.3289,0.3292,0.331,0.3289,0.3289,0.3339,0.3247,0.3235,0.3249,0.3236,0.3183,0.3169,0.3107,0.3139,0.3139,0.3188,0.3066,0.324,0.325,0.3259,0.3365,0.3385,0.3402,0,0,0,0,0,0.3288,0.333,0.3311,0.3314,0.331,0.3342,0.3342,0.3293,0.3254,0.3277,0.3242,0.3171,0.3197,0.3144,0.3142,0.3192,0.3236,0.3247,0.3258,0.3356,0.3381,0.3402,0,0,0,0,0,0,0.3337,0.3321,0.3299,0.3334,0.3346,0.3322,0.3348,0.3324,0.3318,0.33,0.323,0.3219,0.3276,0.3242,0.3184,0.3285,0.3209,0.322,0.3284,0.3307,0.3326,0.332,0.3067,0,0,0,0,0,0.3361,0.3376,0.337,0.3403,0.3413,0.339,0.3402,0.3373,0.3363,0.3354,0.3318,0.3303,0.3329,0.3318,0.3332,0.3383,0.3388,0.3423,0.3442,0.3457,0.346,0.3541,0.3566,0.33,0.33,0.33,0,0,0.3388,0.3386,0.3394,0.3415,0.3413,0.3437,0.3385,0.3415,0.343,0.3353,0.3371,0.3379,0.3367,0.3418,0.344,0.3383,0.3545,0.3471,0.3484,0.3478,0.3555,0.3581,0.3603,0.3307,0.3306,0.3305,0,0,0.3439,0.3453,0.3469,0.349,0.3506,0.35,0.352,0.3513,0.3506,0.3552,0.3507,0.3551,0.3564,0.3561,0.3565,0.3712,0.366,0.3722,0.3781,0.3861,0.3882,0.3901,0.3961,0.3984,0.3707,0.3707,0.3707,0,0.3466,0.3477,0.349,0.3515,0.3526,0.3533,0.355,0.3578,0.3582,0.3588,0.3572,0.3639,0.3636,0.3696,0.3744,0.375,0.3777,0.3681,0.3881,0.39,0.3917,0.3973,0.3997,0.3714,0.3713,0.3712,0.3712,0,0.3507,0.353,0.3557,0.357,0.3601,0.3632,0.3657,0.3693,0.3699,0.3703,0.3782,0.3805,0.3825,0.3861,0.3843,0.3964,0.3942,0.391,0.3808,0.3949,0.4001,0.4024,0.3724,0.3721,0.3719,0.3718,0,0,0.3494,0.3562,0.3562,0.3564,0.3621,0.3634,0.3708,0.3745,0.3767,0.3831,0.3868,0.3966,0.3972,0.3984,0.3986,0.4061,0.4227,0.4038,0.4039,0.4071,0.44,0.4359,0.4378,0.4223,0.4228,0.4231,0.4394,0,0.3498,0.3537,0.3574,0.3608,0.3622,0.3669,0.3719,0.3768,0.3819,0.3873,0.3948,0.3995,0.402,0.4032,0.4131,0.4197,0.4289,0.4185,0.4282,0.4285,0.4208,0.4404,0.4268,0.44,0.4415,0.4419,0.4421,0,0.3486,0.3512,0.354,0.3582,0.359,0.3624,0.3675,0.3728,0.3836,0.3876,0.397,0.4014,0.415,0.4147,0.436,0.429,0.437,0.4427,0.4433,0.4363,0.4285,0.4262,0.4439,0.4276,0.4455,0.4452,0.445,0,0.3409,0.3471,0.348,0.3501,0.357,0.3588,0.3627,0.3717,0.3753,0.3879,0.3919,0.4075,0.4144,0.4299,0.4447,0.4408,0.4676,0.4619,0.4661,0.4656,0.4544,0.4522,0.4546,0.4788,0.4788,0.4787,0.4787,0,0.3373,0.3373,0.3444,0.3448,0.3453,0.3523,0.3545,0.3618,0.3719,0.3775,0.3908,0.399,0.4191,0.4354,0.4486,0.4666,0.4715,0.472,0.4719,0.4584,0.4565,0.4414,0.4322,0.4793,0.4792,0.4791,0.479,0,0.3283,0.3333,0.3344,0.3407,0.3418,0.3423,0.3484,0.351,0.3619,0.3711,0.375,0.3952,0.4168,0.4365,0.4613,0.469,0.4733,0.4904,0.4727,0.4703,0.4548,0.4467,0.4375,0.4258,0.4972,0.4972,0.4972,0,0.3242,0.3241,0.3292,0.329,0.3317,0.3334,0.3345,0.3448,0.3498,0.369,0.3739,0.3955,0.4107,0.446,0.4662,0.4894,0.4734,0.4857,0.4763,0.4566,0.4476,0.4288,0.4182,0.467,0.4668,0.4666,0.4665,0,0.3157,0.3177,0.3187,0.319,0.3198,0.3204,0.325,0.3268,0.3412,0.3504,0.3668,0.3798,0.4149,0.4338,0.463,0.4754,0.4595,0.4823,0.4675,0.4309,0.4051,0.3926,0.4518,0.4648,0.465,0.4651,0.4652,0.4653,0.3081,0.3065,0.3076,0.3071,0.3074,0.3068,0.304,0.3126,0.3185,0.3325,0.3543,0.3727,0.4023,0.4419,0.4513,0.4534,0.4498,0.4434,0.4379,0.4226,0.4028,0.4583,0.4665,0.4667,0.4668,0.4669,0.467,0,0.2968,0.2958,0.2951,0.2927,0.2882,0.2935,0.2957,0.2937,0.2976,0.3195,0.335,0.3649,0.3836,0.4057,0.422,0.4117,0.3963,0.399,0.3685,0.3625,0.4186,0.4085,0.3974,0.3974,0.3974,0.3974,0.3974,0.3975,0.2899,0.2848,0.285,0.2742,0.2719,0.2629,0.262,0.2652,0.2773,0.2918,0.3093,0.3304,0.3567,0.375,0.3719,0.3672,0.3388,0.3268,0.3227,0.3602,0.3637,0.367,0.3553,0.3333,0.3332,0.2547,0.2541,0.2536]},{"header":{"parameterUnit":"m.s-1","parameterCategory":2,"la1":30.2991,"la2":30.254,"lo1":-89.0895,"lo2":-89.0444,"dy":0.0017,"dx":0.0017,"nx":28,"ny":28,"refTime":"2024-05-18T21:00:00:Z","depth":"0","parameterNumber":3,"parameterNumberName":"V-component_of_CURRENTS"},"data":[0,0,0,0,0,0,0,0,0,0,0,0,0,0,0,0,0,0,0,0,0,0,0,0,0,0,0,0,0,0,0,0,0,0,0,0,0,0,0,0,0,0,0,0,0,0,0,0,0,0,0,0,0,0,0,0,0,0,0.0914,0.0913,0,0.0801,0.0799,0.0798,0.0691,0.0689,0.0688,0.0687,0.0576,0.0574,0.0573,0,0,0,0,0,0,0,0,0,0,0,0,0,0.1011,0.101,0.0914,0.0913,0.0911,0.0801,0.0799,0.0798,0.0691,0.0689,0.0688,0.0686,0.0577,0.0575,0.0572,0,0,0,0,0,0,0,0,0,0,0,0,0,0.094,0.101,0.0914,0.0845,0.0838,0.0801,0.0799,0.0797,0.0691,0.0689,0.0687,0.0686,0.0577,0.0575,0.0572,0.0595,0,0,0.0564,0.0563,0,0,0,0,0,0,0,0,0.0944,0.0937,0.0857,0.085,0.0841,0.0758,0.0793,0.073,0.0692,0.0747,0.0687,0.0685,0.0639,0.0631,0.0613,0.059,0.0585,0.0564,0.0562,0.0561,0.0561,0,0,0,0,0,0,0,0.0949,0.0941,0.0869,0.0855,0.0846,0.081,0.0798,0.078,0.0705,0.0742,0.0734,0.0722,0.0634,0.0616,0.061,0.0584,0.0564,0.0562,0.056,0.0559,0.0591,0.0593,0,0,0,0,0,0,0.0968,0.0946,0.0872,0.0865,0.089,0.081,0.0797,0.0787,0.0705,0.069,0.0724,0.0718,0.0622,0.0613,0.0606,0.0661,0.0561,0.0559,0.0557,0.0588,0.0591,0.0594,0,0,0,0,0,0,0.097,0.0962,0.0877,0.0903,0.089,0.0811,0.08,0.0785,0.0766,0.0691,0.0677,0.072,0.062,0.061,0.0611,0.0655,0.0558,0.0555,0.0585,0.0589,0.0593,0.0751,0,0,0,0,0,0,0.0974,0.0964,0.0975,0.0905,0.0889,0.0884,0.0802,0.0785,0.0763,0.0753,0.0684,0.0671,0.0617,0.0615,0.0608,0.0649,0.0553,0.0582,0.0587,0.0591,0.0743,0.076,0.0774,0,0,0,0,0,0.0978,0.1008,0.0976,0.0968,0.0902,0.0887,0.0877,0.0813,0.0765,0.0783,0.0732,0.0673,0.0638,0.0616,0.0607,0.0648,0.058,0.0586,0.0591,0.0736,0.0757,0.0774,0,0,0,0,0,0,0.1062,0.0997,0.0961,0.0971,0.0942,0.0869,0.0877,0.0829,0.08,0.0787,0.0706,0.0693,0.071,0.0663,0.064,0.0671,0.0599,0.0603,0.0712,0.0731,0.0747,0.0767,0.0551,0,0,0,0,0,0.1085,0.1086,0.1024,0.1036,0.1024,0.0952,0.0938,0.0895,0.0854,0.0836,0.0786,0.0742,0.0727,0.0716,0.0692,0.0715,0.0654,0.0735,0.075,0.0764,0.0776,0.074,0.0754,0.0612,0.0611,0.0611,0,0,0.1124,0.1087,0.1089,0.1055,0.1019,0.1029,0.0939,0.0932,0.0946,0.0834,0.0846,0.0798,0.0746,0.0769,0.0772,0.0734,0.0771,0.0771,0.0783,0.0787,0.0747,0.0761,0.0773,0.0615,0.0615,0.0614,0,0,0.1194,0.1167,0.1184,0.1171,0.1131,0.1099,0.1104,0.1043,0.1025,0.1039,0.0958,0.0942,0.0917,0.0885,0.0867,0.0959,0.0857,0.0947,0.1042,0.1008,0.1019,0.1028,0.096,0.0961,0.0953,0.0954,0.0954,0,0.1237,0.1242,0.1195,0.1208,0.1208,0.1139,0.1166,0.1157,0.1108,0.1103,0.1071,0.1024,0.0979,0.0993,0.1023,0.0996,0.0942,0.0975,0.1028,0.1036,0.1042,0.097,0.0969,0.0962,0.0961,0.096,0.0959,0,0.1306,0.1318,0.1335,0.1326,0.1336,0.1351,0.1327,0.1336,0.1306,0.1275,0.1284,0.1225,0.1188,0.118,0.1133,0.1158,0.1092,0.1053,0.098,0.1066,0.0984,0.0981,0.0974,0.0971,0.0968,0.0966,0,0,0.1352,0.1376,0.1377,0.139,0.1393,0.1399,0.1458,0.1467,0.1483,0.1462,0.148,0.1461,0.1396,0.1373,0.1302,0.1279,0.1276,0.1196,0.119,0.1127,0.1172,0.1127,0.1118,0.1242,0.1243,0.1243,0.1092,0,0.1405,0.1456,0.1463,0.1528,0.1546,0.1537,0.1592,0.1601,0.1598,0.1607,0.1559,0.155,0.148,0.1455,0.1431,0.1318,0.1277,0.1318,0.1098,0.1091,0.1041,0.1117,0.1093,0.0958,0.1088,0.1087,0.1087,0,0.1443,0.1471,0.1539,0.1596,0.1606,0.165,0.1699,0.1739,0.1754,0.175,0.1739,0.1683,0.1657,0.1581,0.145,0.1476,0.1342,0.1249,0.1239,0.1142,0.1043,0.0895,0.0946,0.0718,0.1081,0.1081,0.1082,0,0.1448,0.1518,0.1573,0.1591,0.1654,0.1694,0.1733,0.1769,0.1806,0.1825,0.1841,0.1795,0.176,0.1637,0.147,0.1448,0.1311,0.1245,0.107,0.1063,0.0972,0.0957,0.078,0.1141,0.1141,0.1141,0.1142,0,0.1472,0.151,0.1577,0.16,0.1672,0.1713,0.1788,0.1821,0.1876,0.1925,0.1898,0.1915,0.1773,0.1681,0.1513,0.1304,0.1338,0.1101,0.1038,0.1026,0.1018,0.0757,0.0646,0.1136,0.1137,0.1138,0.1139,0,0.145,0.1497,0.1556,0.1639,0.1669,0.1715,0.1822,0.1877,0.1925,0.1992,0.2003,0.1993,0.1888,0.1731,0.1519,0.1346,0.1024,0.1057,0.1044,0.0984,0.0605,0.0506,0.0294,0.02,0.0831,0.0829,0.0827,0,0.144,0.1465,0.1566,0.1609,0.1647,0.1727,0.1792,0.1882,0.1953,0.2036,0.2073,0.2015,0.1998,0.1702,0.1414,0.1127,0.0941,0.0868,0.0831,0.0598,0.0439,0.0398,0.0332,0.0753,0.0751,0.0749,0.0748,0,0.141,0.1446,0.1497,0.1591,0.1667,0.1766,0.1871,0.1938,0.205,0.2118,0.219,0.2191,0.1943,0.169,0.1319,0.1091,0.0722,0.0822,0.059,0.0385,0.032,0.0194,0.0808,0.0734,0.0735,0.0736,0.0737,0.0737,0.1376,0.1409,0.1485,0.1572,0.1671,0.1799,0.188,0.2004,0.2126,0.2264,0.2275,0.233,0.1953,0.1469,0.1136,0.0519,0.0569,0.0319,0.0218,0.0198,0.0119,0.0699,0.0557,0.0557,0.0557,0.0558,0.0558,0,0.1331,0.1386,0.1466,0.1584,0.1686,0.1759,0.193,0.2025,0.2165,0.2331,0.2419,0.2291,0.1786,0.1271,0.0464,0.0012,-0.0121,-0.0231,-0.0313,-0.0352,0.0153,0.0161,-0.0082,-0.0082,-0.0082,-0.0081,-0.0081,-0.0081,0.131,0.1366,0.1423,0.1569,0.1661,0.181,0.1912,0.2063,0.222,0.2395,0.2476,0.253,0.2086,0.0684,-0.0325,-0.0554,-0.0822,-0.087,-0.1,-0.0694,-0.065,-0.0609,-0.0628,-0.1032,-0.1033,-0.1444,-0.1449,-0.1453]}],[{"header":{"parameterUnit":"m.s-1","parameterCategory":2,"la1":30.2991,"la2":30.254,"lo1":-89.0895,"lo2":-89.0444,"dy":0.0017,"dx":0.0017,"nx":28,"ny":28,"refTime":"2024-05-18T21:00:00:Z","depth":"2","parameterNumber":2,"parameterNumberName":"U-component_of_CURRENTS"},"data":[0,0,0,0,0,0,0,0,0,0,0,0,0,0,0,0,0,0,0,0,0,0,0,0,0,0,0,0,0,0,0,0,0,0,0,0,0,0,0,0,0,0,0,0,0,0,0,0,0,0,0,0,0,0,0,0,0,0,0.2673,0.2673,0,0.2749,0.2749,0.275,0.2787,0.2787,0.2787,0.2787,0.28,0.28,0.28,0,0,0,0,0,0,0,0,0,0,0,0,0,0.2563,0.2565,0.2672,0.2674,0.2675,0.2748,0.2749,0.275,0.2787,0.2787,0.2787,0.2787,0.28,0.28,0.28,0,0,0,0,0,0,0,0,0,0,0,0,0,0.2621,0.2565,0.2672,0.2703,0.2706,0.2748,0.2749,0.2751,0.2787,0.2787,0.2787,0.2787,0.28,0.28,0.28,0.28,0,0,0.2802,0.2802,0,0,0,0,0,0,0,0,0.2617,0.2624,0.2697,0.2701,0.2705,0.2759,0.2716,0.2765,0.2786,0.2755,0.2787,0.2787,0.2781,0.2783,0.2796,0.2801,0.2801,0.2802,0.2802,0.2802,0.2802,0,0,0,0,0,0,0,0.2613,0.2621,0.2701,0.2698,0.2703,0.2714,0.2722,0.2725,0.2764,0.2757,0.2761,0.2771,0.2783,0.2796,0.2797,0.2802,0.2802,0.2802,0.2802,0.2802,0.2878,0.288,0,0,0,0,0,0,0.2606,0.2618,0.2699,0.2704,0.2662,0.2716,0.2725,0.2741,0.2766,0.277,0.2771,0.2772,0.2795,0.2796,0.2797,0.2864,0.2802,0.2802,0.2803,0.2877,0.2879,0.2881,0,0,0,0,0,0,0.2604,0.2613,0.2696,0.2663,0.2674,0.2718,0.2735,0.2742,0.277,0.2777,0.278,0.2793,0.2795,0.2797,0.2825,0.2862,0.2803,0.2803,0.2874,0.2877,0.288,0.2955,0,0,0,0,0,0,0.26,0.2612,0.2626,0.2663,0.2676,0.2735,0.2735,0.2743,0.2776,0.2779,0.2796,0.2797,0.2795,0.2824,0.2825,0.2861,0.2803,0.2872,0.2876,0.2879,0.295,0.296,0.2968,0,0,0,0,0,0.2596,0.2613,0.2626,0.2636,0.2692,0.2736,0.2744,0.2773,0.2777,0.2797,0.2813,0.2797,0.2846,0.2826,0.2826,0.2864,0.2871,0.2875,0.2879,0.2946,0.2958,0.2968,0,0,0,0,0,0,0.2571,0.262,0.2634,0.2665,0.2704,0.2743,0.2767,0.2781,0.2811,0.2815,0.2815,0.2818,0.2861,0.2849,0.2827,0.2897,0.2857,0.2862,0.2909,0.292,0.2928,0.2936,0.2804,0,0,0,0,0,0.2572,0.2598,0.2646,0.267,0.2694,0.2732,0.2754,0.2775,0.2804,0.2818,0.2831,0.2848,0.2876,0.2886,0.2904,0.2933,0.2949,0.2959,0.2968,0.2976,0.2984,0.3047,0.3063,0.2894,0.2894,0.2894,0,0,0.2568,0.2598,0.2612,0.2666,0.27,0.2742,0.2746,0.2789,0.2825,0.2813,0.2862,0.2879,0.2892,0.2938,0.2955,0.2932,0.3036,0.2981,0.2987,0.2991,0.3053,0.3069,0.3084,0.2896,0.2896,0.2896,0,0,0.2571,0.2604,0.2631,0.2667,0.2723,0.2754,0.277,0.282,0.2849,0.2894,0.2906,0.2947,0.2972,0.3003,0.3018,0.3083,0.3084,0.3088,0.3136,0.3198,0.3212,0.3225,0.3281,0.3299,0.3088,0.3088,0.3088,0,0.2566,0.261,0.2644,0.2683,0.2721,0.2762,0.2806,0.2843,0.2894,0.2925,0.2918,0.3001,0.3008,0.3081,0.311,0.3105,0.3137,0.3093,0.321,0.3223,0.3235,0.3289,0.3308,0.3092,0.3092,0.3091,0.3091,0,0.2594,0.2634,0.2656,0.2723,0.2764,0.281,0.2869,0.2913,0.2948,0.2984,0.3063,0.3088,0.3137,0.3153,0.3152,0.3246,0.3243,0.3218,0.3183,0.3257,0.3309,0.3327,0.3098,0.3097,0.3096,0.3095,0,0,0.2577,0.2661,0.267,0.2704,0.2794,0.2824,0.2901,0.2982,0.303,0.3087,0.3158,0.3221,0.3238,0.3257,0.3271,0.3324,0.344,0.3312,0.3313,0.3368,0.3587,0.3386,0.3386,0.3442,0.3445,0.3447,0.3595,0,0.2598,0.2658,0.2708,0.2776,0.2819,0.2889,0.2956,0.3028,0.3087,0.3162,0.3221,0.3289,0.3277,0.3312,0.3369,0.3426,0.3488,0.3403,0.3506,0.3509,0.3322,0.3399,0.3139,0.323,0.3612,0.3614,0.3616,0,0.2619,0.2657,0.2723,0.2808,0.2837,0.2883,0.2994,0.3054,0.3171,0.3219,0.3301,0.3352,0.346,0.3427,0.3574,0.3524,0.3566,0.3601,0.3607,0.3401,0.3339,0.3216,0.3247,0.3645,0.3643,0.3641,0.3639,0,0.2581,0.267,0.2718,0.2748,0.2853,0.2898,0.2957,0.3068,0.3128,0.3256,0.3325,0.3441,0.3513,0.3597,0.3662,0.3643,0.3804,0.3781,0.3646,0.3633,0.3419,0.3379,0.3887,0.3887,0.3886,0.3886,0.3885,0,0.2583,0.2621,0.2698,0.272,0.2781,0.2864,0.2942,0.3016,0.3137,0.3225,0.3342,0.3441,0.3561,0.3662,0.371,0.3719,0.3846,0.367,0.3658,0.3435,0.3397,0.3751,0.3733,0.3891,0.389,0.3889,0.3888,0,0.2533,0.2592,0.2639,0.2732,0.2762,0.2794,0.2909,0.2967,0.3095,0.3217,0.3273,0.3466,0.3595,0.368,0.3817,0.3754,0.3798,0.3766,0.3484,0.3431,0.3587,0.3572,0.3657,0.3651,0.3646,0.3642,0.3638,0,0.2512,0.2533,0.2611,0.2636,0.2677,0.274,0.2798,0.2921,0.2996,0.3233,0.3301,0.3472,0.3522,0.3617,0.3589,0.3599,0.3725,0.3341,0.3227,0.3583,0.3565,0.3558,0.3549,0.3011,0.3003,0.2996,0.2991,0,0.2464,0.2493,0.2526,0.2575,0.2623,0.2669,0.2763,0.281,0.2987,0.3092,0.3259,0.3307,0.3386,0.3249,0.3204,0.3189,0.3305,0.3194,0.3686,0.3063,0.2973,0.2954,0.2969,0.293,0.2936,0.294,0.2944,0.2946,0.2421,0.2425,0.2473,0.2515,0.2562,0.2595,0.2606,0.2711,0.2788,0.2875,0.3027,0.2987,0.2998,0.2771,0.2717,0.2714,0.2923,0.2815,0.2839,0.2869,0.2721,0.2621,0.2488,0.2491,0.2494,0.2497,0.2499,0,0.2365,0.239,0.2417,0.245,0.2455,0.2523,0.2589,0.2566,0.2605,0.2626,0.2638,0.2358,0.2219,0.2304,0.218,0.2138,0.2157,0.2085,0.2113,0.2173,0.2227,0.2048,0.1637,0.1634,0.1632,0.163,0,0,0.2339,0.2339,0.2353,0.2339,0.2372,0.2352,0.2368,0.2324,0.2309,0.213,0.2043,0.2044,0.2172,0.1851,0.1815,0.1721,0.1937,0.1658,0.2348,0.244,0.249,0.2644,0.2433,0,0,0,0,0]},{"header":{"parameterUnit":"m.s-1","parameterCategory":2,"la1":30.2991,"la2":30.254,"lo1":-89.0895,"lo2":-89.0444,"dy":0.0017,"dx":0.0017,"nx":28,"ny":28,"refTime":"2024-05-18T21:00:00:Z","depth":"2","parameterNumber":3,"parameterNumberName":"V-component_of_CURRENTS"},"data":[0,0,0,0,0,0,0,0,0,0,0,0,0,0,0,0,0,0,0,0,0,0,0,0,0,0,0,0,0,0,0,0,0,0,0,0,0,0,0,0,0,0,0,0,0,0,0,0,0,0,0,0,0,0,0,0,0,0,-0.0439,-0.044,0,-0.0496,-0.0496,-0.0497,-0.0518,-0.0517,-0.0517,-0.0517,-0.0566,-0.0567,-0.0569,0,0,0,0,0,0,0,0,0,0,0,0,0,-0.0402,-0.0403,-0.0439,-0.044,-0.0441,-0.0496,-0.0496,-0.0497,-0.0518,-0.0517,-0.0517,-0.0517,-0.0565,-0.0567,-0.0569,0,0,0,0,0,0,0,0,0,0,0,0,0,-0.0436,-0.0403,-0.0439,-0.0457,-0.0459,-0.0495,-0.0496,-0.0498,-0.0518,-0.0517,-0.0517,-0.0517,-0.0564,-0.0567,-0.0569,-0.0593,0,0,-0.0576,-0.0577,0,0,0,0,0,0,0,0,-0.0434,-0.0437,-0.0453,-0.0455,-0.0458,-0.0498,-0.0501,-0.0529,-0.0518,-0.0497,-0.0517,-0.0516,-0.0542,-0.0546,-0.056,-0.0595,-0.0597,-0.0577,-0.0578,-0.0579,-0.058,0,0,0,0,0,0,0,-0.0431,-0.0435,-0.0463,-0.0454,-0.0457,-0.048,-0.0483,-0.0507,-0.0522,-0.0498,-0.05,-0.0504,-0.0543,-0.0557,-0.0561,-0.0598,-0.0576,-0.0579,-0.058,-0.0581,-0.0625,-0.0625,0,0,0,0,0,0,-0.042,-0.0433,-0.0461,-0.0464,-0.0443,-0.048,-0.0485,-0.0487,-0.0522,-0.0527,-0.0505,-0.0505,-0.0553,-0.0558,-0.0563,-0.0542,-0.0579,-0.0581,-0.0583,-0.0625,-0.0625,-0.0625,0,0,0,0,0,0,-0.0419,-0.0422,-0.0459,-0.0449,-0.0455,-0.0481,-0.0483,-0.0488,-0.0488,-0.0526,-0.0531,-0.0498,-0.0553,-0.0559,-0.0568,-0.0546,-0.0582,-0.0584,-0.0626,-0.0625,-0.0625,-0.0534,0,0,0,0,0,0,-0.0417,-0.0421,-0.0412,-0.0448,-0.0455,-0.0461,-0.0484,-0.0489,-0.0492,-0.0493,-0.0523,-0.0528,-0.0553,-0.0565,-0.0571,-0.055,-0.0586,-0.0626,-0.0625,-0.0625,-0.0537,-0.053,-0.0525,0,0,0,0,0,-0.0416,-0.04,-0.0412,-0.0415,-0.0445,-0.046,-0.0466,-0.0484,-0.0492,-0.0484,-0.0507,-0.0526,-0.0566,-0.0566,-0.0574,-0.0553,-0.0626,-0.0626,-0.0625,-0.054,-0.0532,-0.0525,0,0,0,0,0,0,-0.0375,-0.0402,-0.0415,-0.0407,-0.0425,-0.0463,-0.0458,-0.0474,-0.0489,-0.0485,-0.0523,-0.0529,-0.0531,-0.0559,-0.0558,-0.0567,-0.06,-0.0601,-0.0533,-0.0525,-0.0519,-0.0493,-0.0588,0,0,0,0,0,-0.0364,-0.0359,-0.0392,-0.0383,-0.0392,-0.0424,-0.0431,-0.0443,-0.0464,-0.0469,-0.049,-0.0516,-0.0538,-0.0543,-0.0568,-0.0571,-0.0593,-0.0565,-0.0558,-0.0553,-0.0538,-0.0568,-0.0563,-0.0623,-0.0623,-0.0623,0,0,-0.0345,-0.0359,-0.0355,-0.0374,-0.0392,-0.0386,-0.0427,-0.0427,-0.0416,-0.0473,-0.0459,-0.0494,-0.0536,-0.0538,-0.0541,-0.0554,-0.0544,-0.0552,-0.0546,-0.0535,-0.0567,-0.0561,-0.0556,-0.0622,-0.0623,-0.0623,0,0,-0.0299,-0.0319,-0.0298,-0.031,-0.0327,-0.0348,-0.0343,-0.0371,-0.0377,-0.0378,-0.0416,-0.0434,-0.0465,-0.0487,-0.0505,-0.0482,-0.0513,-0.0491,-0.0432,-0.0461,-0.0456,-0.0451,-0.0453,-0.045,-0.0484,-0.0484,-0.0484,0,-0.0273,-0.0256,-0.0293,-0.0277,-0.0273,-0.0324,-0.0296,-0.0315,-0.0337,-0.0336,-0.0357,-0.0404,-0.0439,-0.0445,-0.0437,-0.0464,-0.0479,-0.0452,-0.045,-0.0447,-0.0444,-0.0447,-0.0445,-0.0479,-0.048,-0.048,-0.0481,0,-0.0215,-0.0202,-0.0191,-0.0187,-0.0186,-0.0174,-0.0202,-0.02,-0.0218,-0.024,-0.025,-0.0308,-0.033,-0.0352,-0.0385,-0.0382,-0.0396,-0.044,-0.0463,-0.0432,-0.0438,-0.0437,-0.0473,-0.0475,-0.0476,-0.0477,0,0,-0.0151,-0.0149,-0.0142,-0.012,-0.0136,-0.0122,-0.0108,-0.0108,-0.0087,-0.0131,-0.0106,-0.0168,-0.0203,-0.0227,-0.0279,-0.031,-0.0302,-0.0355,-0.0359,-0.0343,-0.0342,-0.0384,-0.0388,-0.0345,-0.0345,-0.0345,-0.0346,0,-0.0092,-0.0035,-0.0053,0.0007,0.0033,-0.0,0.0025,0.002,-0.0004,0.0004,-0.0069,-0.0071,-0.0156,-0.0155,-0.0202,-0.0274,-0.0298,-0.0296,-0.0386,-0.0388,-0.0419,-0.0388,-0.0355,-0.0357,-0.0346,-0.0346,-0.0345,0,-0.0024,0.0005,0.0072,0.0114,0.0125,0.0151,0.0186,0.0199,0.0176,0.0161,0.0124,0.0073,0.0033,-0.0048,-0.0154,-0.0147,-0.0228,-0.0298,-0.0301,-0.0371,-0.0429,-0.0392,-0.0356,-0.0344,-0.0344,-0.0345,-0.0345,0,0.0053,0.0099,0.016,0.0171,0.0203,0.0235,0.0253,0.025,0.028,0.0262,0.0289,0.0205,0.0195,0.0068,-0.0071,-0.0104,-0.019,-0.0257,-0.0371,-0.0374,-0.0378,-0.0383,-0.0329,-0.0329,-0.0329,-0.0329,-0.0329,0,0.0121,0.0177,0.0201,0.0236,0.0321,0.0317,0.0391,0.0393,0.0413,0.0474,0.0379,0.0416,0.0222,0.0149,-0.001,-0.0172,-0.0141,-0.0344,-0.0379,-0.0346,-0.0347,-0.0373,-0.0378,-0.0329,-0.0329,-0.0329,-0.0329,0,0.0195,0.0206,0.0283,0.0334,0.0356,0.0418,0.0487,0.0541,0.0547,0.0627,0.0643,0.059,0.049,0.0292,0.0105,-0.007,-0.0235,-0.0302,-0.0238,-0.0266,-0.0413,-0.0413,-0.0428,-0.043,-0.0431,-0.0432,-0.0433,0,0.0236,0.028,0.0359,0.0411,0.0434,0.0513,0.0575,0.0603,0.0669,0.0745,0.0807,0.0749,0.0701,0.0405,0.0111,-0.0165,-0.0214,-0.0325,-0.0407,-0.0392,-0.0423,-0.0422,-0.0421,-0.0361,-0.0361,-0.0362,-0.0362,0,0.0317,0.0342,0.0404,0.0504,0.0578,0.0667,0.0759,0.0838,0.0897,0.098,0.1079,0.1049,0.0766,0.0481,0.0082,-0.0105,-0.0289,-0.0342,-0.0323,-0.0357,-0.0334,-0.0364,-0.0363,-0.0364,-0.0363,-0.0363,-0.0363,-0.0363,0.038,0.0439,0.0513,0.0608,0.07,0.0819,0.0908,0.1028,0.1166,0.1275,0.1233,0.117,0.0837,0.0307,0.0017,-0.0285,-0.0306,-0.044,-0.0437,-0.0434,-0.0442,-0.0424,-0.047,-0.047,-0.047,-0.0471,-0.0471,0,0.0454,0.0516,0.0613,0.0731,0.0841,0.0867,0.1034,0.1149,0.1338,0.1366,0.1393,0.1052,0.0712,0.0367,-0.0089,-0.0392,-0.0396,-0.0471,-0.0415,-0.0412,-0.041,-0.0414,-0.0436,-0.0437,-0.0437,-0.0437,0,0,0.0501,0.0599,0.0641,0.0823,0.091,0.106,0.116,0.1358,0.1437,0.1465,0.1379,0.1185,0.0772,0.0439,0.006,-0.0174,-0.0219,-0.0217,-0.0219,-0.0104,-0.0098,-0.0372,-0.0375,0,0,0,0,0]}],[{"header":{"parameterUnit":"m.s-1","parameterCategory":2,"la1":30.2991,"la2":30.254,"lo1":-89.0895,"lo2":-89.0444,"dy":0.0017,"dx":0.0017,"nx":28,"ny":28,"refTime":"2024-05-18T21:00:00:Z","depth":"4","parameterNumber":2,"parameterNumberName":"U-component_of_CURRENTS"},"data":[0,0,0,0,0,0,0,0,0,0,0,0,0,0,0,0,0,0,0,0,0,0,0,0,0,0,0,0,0,0,0,0,0,0,0,0,0,0,0,0,0,0,0,0,0,0,0,0,0,0,0,0,0,0,0,0,0,0,0.095,0.0951,0,0.098,0.098,0.098,0.1006,0.1007,0.1008,0.1008,0.103,0.103,0.103,0,0,0,0,0,0,0,0,0,0,0,0,0,0.0881,0.0882,0.095,0.0951,0.0951,0.098,0.098,0.098,0.1006,0.1007,0.1008,0.1009,0.103,0.103,0.103,0,0,0,0,0,0,0,0,0,0,0,0,0,0.0907,0.0882,0.095,0.0971,0.0973,0.098,0.098,0.098,0.1006,0.1007,0.1008,0.1009,0.103,0.103,0.103,0.1009,0,0,0.103,0.1029,0,0,0,0,0,0,0,0,0.0906,0.0909,0.0967,0.0969,0.0972,0.0994,0.0964,0.0991,0.1006,0.0989,0.1008,0.101,0.1019,0.102,0.1018,0.101,0.1011,0.103,0.1029,0.1029,0.1029,0,0,0,0,0,0,0,0.0904,0.0908,0.0958,0.0968,0.0971,0.0968,0.0972,0.0969,0.0995,0.0991,0.0994,0.1003,0.102,0.1018,0.1018,0.1012,0.103,0.1029,0.1029,0.1029,0.1059,0.1059,0,0,0,0,0,0,0.0909,0.0906,0.0957,0.0959,0.0945,0.0968,0.0973,0.0983,0.0995,0.0999,0.1002,0.1005,0.1017,0.1019,0.1019,0.109,0.1029,0.1029,0.1029,0.1058,0.1059,0.106,0,0,0,0,0,0,0.0907,0.0913,0.0956,0.0937,0.0942,0.0969,0.0979,0.0983,0.1013,0.1005,0.1008,0.1032,0.1018,0.1019,0.1035,0.1087,0.1029,0.1029,0.1057,0.1058,0.1059,0.117,0,0,0,0,0,0,0.0905,0.0912,0.0931,0.0937,0.0944,0.097,0.0979,0.0983,0.1017,0.102,0.1031,0.1032,0.1019,0.1035,0.1034,0.1086,0.1029,0.1056,0.1057,0.1059,0.1166,0.1175,0.1183,0,0,0,0,0,0.0903,0.0912,0.0932,0.0939,0.0965,0.0971,0.0973,0.0992,0.1018,0.1024,0.1036,0.1033,0.1045,0.1035,0.1035,0.1088,0.1055,0.1057,0.1059,0.1162,0.1173,0.1183,0,0,0,0,0,0,0.0886,0.0916,0.0938,0.0956,0.0973,0.0977,0.0989,0.1011,0.1026,0.1042,0.1038,0.1039,0.1076,0.1054,0.1044,0.1096,0.1052,0.1054,0.113,0.1141,0.115,0.1112,0.1029,0,0,0,0,0,0.0894,0.0913,0.0937,0.0953,0.0965,0.0987,0.1,0.1018,0.1029,0.104,0.1048,0.1058,0.1076,0.1087,0.1086,0.111,0.1092,0.1142,0.1151,0.1159,0.1126,0.1164,0.1174,0.1066,0.1066,0.1066,0,0,0.0891,0.0913,0.0924,0.0953,0.0968,0.0989,0.0996,0.1022,0.1051,0.1038,0.1076,0.1089,0.1088,0.112,0.1135,0.1115,0.1185,0.1161,0.1169,0.113,0.1167,0.1178,0.1188,0.1067,0.1067,0.1066,0,0,0.0888,0.0916,0.0934,0.0952,0.0989,0.1004,0.1022,0.1047,0.107,0.1107,0.1115,0.1146,0.1169,0.1175,0.1184,0.1233,0.1231,0.1255,0.1275,0.1316,0.1325,0.1333,0.1347,0.1356,0.1261,0.1261,0.1261,0,0.0892,0.0918,0.0937,0.096,0.0983,0.1018,0.1044,0.1067,0.1098,0.1118,0.1132,0.1191,0.119,0.124,0.1252,0.1257,0.1269,0.1246,0.133,0.1337,0.1343,0.1356,0.1363,0.1267,0.1266,0.1266,0.1265,0,0.0901,0.0931,0.0938,0.0987,0.101,0.1034,0.1074,0.1108,0.1155,0.118,0.1245,0.1257,0.1295,0.1313,0.1294,0.135,0.1342,0.1343,0.1309,0.1361,0.1371,0.1377,0.1275,0.1273,0.1271,0.127,0,0,0.0885,0.0939,0.0943,0.0973,0.1032,0.1047,0.1102,0.1151,0.1198,0.1247,0.1309,0.1342,0.137,0.1376,0.139,0.14,0.1462,0.1387,0.1387,0.141,0.1546,0.1475,0.1475,0.15,0.1502,0.1502,0.1543,0,0.0893,0.0929,0.0964,0.1011,0.1033,0.1088,0.1137,0.1189,0.1241,0.1302,0.1347,0.1403,0.1397,0.1437,0.146,0.1454,0.1479,0.1449,0.1479,0.1478,0.1419,0.1479,0.1506,0.1548,0.1549,0.155,0.1551,0,0.0892,0.0917,0.096,0.103,0.1049,0.1099,0.1184,0.1232,0.1317,0.1364,0.1439,0.147,0.1514,0.1504,0.1547,0.1539,0.1542,0.1529,0.1532,0.1417,0.1418,0.1476,0.1561,0.156,0.1559,0.1559,0.1558,0,0.0852,0.0916,0.0952,0.0973,0.1058,0.1111,0.1174,0.1257,0.131,0.1408,0.1464,0.1532,0.1601,0.1604,0.1606,0.1586,0.1639,0.162,0.156,0.1556,0.1558,0.1548,0.1646,0.1646,0.1646,0.1646,0.1646,0,0.0833,0.0861,0.0946,0.0962,0.1023,0.1105,0.1193,0.1254,0.1373,0.1431,0.1509,0.1563,0.1631,0.1675,0.1641,0.163,0.1695,0.1552,0.1563,0.1605,0.16,0.1563,0.1553,0.1647,0.1647,0.1647,0.1646,0,0.0774,0.0827,0.0869,0.0968,0.1003,0.1053,0.1201,0.1258,0.1382,0.1469,0.1506,0.1623,0.1668,0.1716,0.1733,0.1691,0.1659,0.1645,0.1689,0.1703,0.1531,0.1526,0.1551,0.1549,0.1547,0.1546,0.1544,0,0.0745,0.0758,0.0848,0.0876,0.0931,0.1027,0.109,0.1239,0.1293,0.147,0.1489,0.161,0.1665,0.1657,0.1693,0.1674,0.1653,0.1639,0.1553,0.1514,0.1522,0.152,0.1518,0.1542,0.1541,0.1541,0.154,0,0.0679,0.0721,0.0753,0.0808,0.0877,0.0945,0.1049,0.1091,0.1256,0.1376,0.1451,0.1497,0.1575,0.1593,0.1639,0.1599,0.1635,0.1619,0.1621,0.154,0.1503,0.1512,0.1512,0.1534,0.1535,0.1535,0.1536,0,0.0632,0.0639,0.069,0.0736,0.0808,0.0857,0.0923,0.1014,0.1103,0.1299,0.131,0.1439,0.1557,0.1555,0.1557,0.1562,0.1509,0.144,0.145,0.1457,0.1407,0.1344,0.1332,0,0,0,0,0,0.058,0.0585,0.0616,0.0668,0.0738,0.0787,0.0889,0.0962,0.1112,0.1135,0.1237,0.129,0.1358,0.1405,0.1386,0.1479,0.1496,0.1446,0.1415,0.15,0.1507,0.1456,0,0,0,0,0,0,0.0547,0.0568,0.0587,0.0609,0.0639,0.0714,0.078,0.0875,0.0893,0.1047,0.1082,0.1208,0.1273,0.1364,0.1362,0.1377,0.1329,0.1526,0.1523,0.1495,0.1502,0.1508,0.1458,0,0,0,0,0]},{"header":{"parameterUnit":"m.s-1","parameterCategory":2,"la1":30.2991,"la2":30.254,"lo1":-89.0895,"lo2":-89.0444,"dy":0.0017,"dx":0.0017,"nx":28,"ny":28,"refTime":"2024-05-18T21:00:00:Z","depth":"4","parameterNumber":3,"parameterNumberName":"V-component_of_CURRENTS"},"data":[0,0,0,0,0,0,0,0,0,0,0,0,0,0,0,0,0,0,0,0,0,0,0,0,0,0,0,0,0,0,0,0,0,0,0,0,0,0,0,0,0,0,0,0,0,0,0,0,0,0,0,0,0,0,0,0,0,0,-0.0088,-0.0088,0,-0.0098,-0.0098,-0.0098,-0.0101,-0.0101,-0.0101,-0.0101,-0.0123,-0.0123,-0.0124,0,0,0,0,0,0,0,0,0,0,0,0,0,-0.0077,-0.0077,-0.0087,-0.0088,-0.0088,-0.0098,-0.0098,-0.0098,-0.0101,-0.0101,-0.0101,-0.0101,-0.0123,-0.0123,-0.0124,0,0,0,0,0,0,0,0,0,0,0,0,0,-0.0083,-0.0077,-0.0087,-0.0091,-0.0092,-0.0098,-0.0098,-0.0099,-0.0101,-0.0101,-0.0101,-0.0101,-0.0122,-0.0123,-0.0124,-0.0128,0,0,-0.0126,-0.0127,0,0,0,0,0,0,0,0,-0.0082,-0.0083,-0.009,-0.0091,-0.0092,-0.0099,-0.0103,-0.0109,-0.0101,-0.0096,-0.0101,-0.0101,-0.0117,-0.0118,-0.0118,-0.0129,-0.013,-0.0127,-0.0127,-0.0127,-0.0128,0,0,0,0,0,0,0,-0.0082,-0.0082,-0.0091,-0.0091,-0.0092,-0.0095,-0.0096,-0.0104,-0.0105,-0.0096,-0.0097,-0.01,-0.0117,-0.0117,-0.0119,-0.013,-0.0127,-0.0127,-0.0128,-0.0128,-0.0178,-0.0178,0,0,0,0,0,0,-0.0083,-0.0082,-0.009,-0.0091,-0.0088,-0.0096,-0.0096,-0.0096,-0.0105,-0.0107,-0.01,-0.01,-0.0116,-0.0118,-0.0119,-0.0148,-0.0127,-0.0128,-0.0129,-0.0177,-0.0178,-0.0179,0,0,0,0,0,0,-0.0082,-0.0083,-0.009,-0.0088,-0.0089,-0.0096,-0.0095,-0.0096,-0.0102,-0.0108,-0.0109,-0.0106,-0.0116,-0.0118,-0.0135,-0.0148,-0.0129,-0.0129,-0.0176,-0.0177,-0.0178,-0.019,0,0,0,0,0,0,-0.0082,-0.0083,-0.0085,-0.0088,-0.0089,-0.009,-0.0095,-0.0096,-0.0104,-0.0104,-0.0113,-0.0115,-0.0116,-0.0134,-0.0136,-0.0149,-0.013,-0.0175,-0.0176,-0.0178,-0.0189,-0.0192,-0.0194,0,0,0,0,0,-0.0081,-0.0073,-0.0085,-0.0086,-0.0091,-0.009,-0.0091,-0.0095,-0.0104,-0.0102,-0.0117,-0.0115,-0.0145,-0.0135,-0.0138,-0.0151,-0.0174,-0.0176,-0.0178,-0.0188,-0.0191,-0.0194,0,0,0,0,0,0,-0.0063,-0.0073,-0.0085,-0.0081,-0.0088,-0.0091,-0.0087,-0.0099,-0.0109,-0.0111,-0.0123,-0.0125,-0.0148,-0.0148,-0.0137,-0.0171,-0.016,-0.0163,-0.0167,-0.0171,-0.0173,-0.0145,-0.0131,0,0,0,0,0,-0.0064,-0.0064,-0.0076,-0.0073,-0.0075,-0.0086,-0.0089,-0.0094,-0.0103,-0.0107,-0.0118,-0.0134,-0.0156,-0.0162,-0.0175,-0.0189,-0.0198,-0.0201,-0.0204,-0.0206,-0.0185,-0.023,-0.0234,-0.0185,-0.0185,-0.0185,0,0,-0.0055,-0.0062,-0.0062,-0.007,-0.0074,-0.0072,-0.0086,-0.0086,-0.009,-0.0109,-0.0117,-0.0144,-0.0164,-0.0184,-0.0193,-0.0185,-0.0227,-0.0208,-0.021,-0.0188,-0.0232,-0.0237,-0.0241,-0.0186,-0.0186,-0.0186,0,0,-0.0033,-0.0045,-0.0037,-0.0043,-0.0053,-0.0061,-0.0064,-0.0074,-0.0083,-0.01,-0.0124,-0.0156,-0.0176,-0.0197,-0.0211,-0.0235,-0.0244,-0.0246,-0.0231,-0.0275,-0.0279,-0.0283,-0.0308,-0.0314,-0.0243,-0.0243,-0.0243,0,-0.0024,-0.0017,-0.0034,-0.0029,-0.0029,-0.0057,-0.0046,-0.0061,-0.0079,-0.009,-0.0101,-0.016,-0.018,-0.0216,-0.0225,-0.024,-0.0259,-0.0217,-0.0278,-0.0282,-0.0285,-0.031,-0.0316,-0.0244,-0.0244,-0.0243,-0.0243,0,0.0,0.0006,0.0014,0.0007,0.0003,0.001,-0.0013,-0.0027,-0.005,-0.0071,-0.0113,-0.0153,-0.0184,-0.0209,-0.0221,-0.0262,-0.0266,-0.0282,-0.0267,-0.0291,-0.0316,-0.0322,-0.0245,-0.0245,-0.0244,-0.0244,0,0,0.0027,0.0031,0.0034,0.0042,0.0024,0.003,0.0014,-0.0003,-0.0012,-0.0057,-0.0075,-0.0135,-0.0165,-0.0182,-0.022,-0.0256,-0.0308,-0.0272,-0.0274,-0.0291,-0.0396,-0.0369,-0.0373,-0.034,-0.0341,-0.0342,-0.0406,0,0.0054,0.008,0.0069,0.0092,0.0105,0.0075,0.0067,0.0041,0.001,-0.0017,-0.0083,-0.0112,-0.0155,-0.0173,-0.0223,-0.0283,-0.0324,-0.0288,-0.0373,-0.0375,-0.0344,-0.0379,-0.0345,-0.041,-0.0412,-0.0413,-0.0413,0,0.0081,0.0097,0.0127,0.014,0.0143,0.0146,0.0131,0.0121,0.0066,0.004,-0.0016,-0.0063,-0.0128,-0.016,-0.0277,-0.0254,-0.0318,-0.0367,-0.0372,-0.0338,-0.0359,-0.0381,-0.0425,-0.0424,-0.0423,-0.0422,-0.0421,0,0.0114,0.014,0.0168,0.0172,0.0174,0.0179,0.0177,0.0138,0.0139,0.008,0.007,-0.0027,-0.0062,-0.0166,-0.0271,-0.0277,-0.0393,-0.0419,-0.0457,-0.0456,-0.0454,-0.0449,-0.0499,-0.0499,-0.0499,-0.0499,-0.0499,0,0.0145,0.017,0.0189,0.0205,0.024,0.0223,0.0245,0.0221,0.0196,0.0201,0.0107,0.0083,-0.0064,-0.0151,-0.0259,-0.037,-0.0391,-0.0448,-0.0472,-0.0459,-0.0454,-0.0459,-0.0453,-0.0501,-0.0501,-0.05,-0.05,0,0.0172,0.0182,0.0222,0.0245,0.0257,0.0281,0.031,0.0319,0.0288,0.029,0.0279,0.017,0.0051,-0.0094,-0.0255,-0.0334,-0.0452,-0.0487,-0.0445,-0.0466,-0.0489,-0.0483,-0.0537,-0.0536,-0.0536,-0.0536,-0.0535,0,0.0187,0.021,0.026,0.0289,0.0303,0.0342,0.0367,0.0364,0.0377,0.0343,0.0343,0.0238,0.015,-0.0054,-0.022,-0.042,-0.0448,-0.0498,-0.0509,-0.0476,-0.0494,-0.0488,-0.0484,-0.0535,-0.0535,-0.0535,-0.0535,0,0.0217,0.0233,0.0266,0.0332,0.0373,0.0423,0.046,0.0481,0.0474,0.0458,0.0408,0.0291,0.0156,-0.0034,-0.0183,-0.0333,-0.0462,-0.0496,-0.0498,-0.0509,-0.0474,-0.0491,-0.0487,-0.0534,-0.0534,-0.0534,-0.0534,0,0.0238,0.0268,0.0314,0.037,0.043,0.0479,0.0498,0.0516,0.0531,0.0495,0.0479,0.032,0.0227,0.0011,-0.0134,-0.0271,-0.0313,-0.0347,-0.0358,-0.0361,-0.0295,-0.0225,-0.0224,0,0,0,0,0,0.0259,0.0295,0.0349,0.041,0.0471,0.0505,0.0548,0.0556,0.0561,0.0545,0.0517,0.0392,0.0175,0.0062,-0.0069,-0.0148,-0.0349,-0.0306,-0.0397,-0.0527,-0.0529,-0.0479,0,0,0,0,0,0,0.0271,0.0324,0.0351,0.0435,0.0482,0.0548,0.0578,0.0578,0.0563,0.0546,0.0425,0.0377,0.0151,0.0256,-0.0066,-0.0111,-0.0181,-0.0413,-0.0415,-0.0527,-0.0528,-0.0529,-0.0479,0,0,0,0,0]}]]